Location: Montbazon
(47.2835°N, 0.6999°E)
Time: 17:29:48
(UTC+00:00)

Cosmos 2061 Rocket - Pass Details

Date: 08 November 2025
Orbit: 964 x 1012 km, 82.9° (Epoch: 10 December)

Event Time Altitude Azimuth Distance (km) Brightness Sun altitude
Rises 06:06:08 0° 345° (NNW) 3,675 6.7 -8.0°
Reaches altitude 10° 06:08:47 10° 339° (NNW) 2,719 6.0 -7.6°
Maximum altitude 06:14:32 41° 271° (W) 1,361 4.4 -6.6°
Drops below altitude 10° 06:20:14 10° 203° (SSW) 2,695 6.3 -5.7°
Sets 06:22:51 0° 197° (SSW) 3,639 7.0 -5.3°
